User: anonymous   Login
Location: Holcomb Observatory
(44.4922°N, 73.1654°W)
Time: 04:48:01
(UTC-04:00)
Language:

SL-16 R/B - Orbit

View from above orbital plane
View from above orbital plane
View from above satellite
View from above satellite

Ground track
Ground track

The orbit data is extracted from the following two-line orbital elements,

1 27006U 01056F   15107.46452212  .00000043  00000-0  95458-4 0  9999
2 27006 099.1988 266.8408 0014175 213.3119 207.9389 13.70951171668017
Epoch (UTC): 17 April 2015 11:08:54
Eccentricity: 0.0014175
inclination: 99.1988°
perigee height: 986 km
apogee height: 1006 km
right ascension of ascending node: 266.8408°
argument of perigee: 213.3119°
revolutions per day: 13.70951171
mean anomaly at epoch: 207.9389°
orbit number at epoch: 66801

The dashed part of the orbit path shows where the satellite is in the earth's shadow,  

DLR